Jefferson, NC

4:12 PM EST on November 12, 2019 (GMT -0500)
Ashe County

Weather History for KGEV - July, 2019

Change the Weather History Date:

Friday, July 26, 2019

  Actual Average Record
Temperature  
Mean Temperature 62 °F -  
Max Temperature 72 °F 80 °F 93 °F (2005)
Min Temperature 53 °F 59 °F 52 °F (1976)
Degree Days  
Heating Degree Days 2    
Growing Degree Days 12 (Base 50)    
Moisture  
Dew Point 56 °F    
Average Humidity 77    
Maximum Humidity 98    
Minimum Humidity 57    
Precipitation  
Precipitation 0.00 in - - ()
Sea Level Pressure  
Sea Level Pressure 30.37 in    
Wind  
Wind Speed 1 mph ()    
Max Wind Speed 8 mph    
Max Gust Speed -    
Visibility 9.9 miles    
Events      
Averages and records for this station are not official NWS values.
T = Trace of Precipitation, MM = Missing Value Source: Averaged Metar Reports

Daily Weather History Graph

Daily Weather History Graph

Search for Another Location

Airport or City:

Astronomy

Jul. 26, 2019 Rise Set
Actual Time 6:27 AM EDT 8:36 PM EDT
Civil Twilight 5:58 AM EDT 9:05 PM EDT
Nautical Twilight 5:22 AM EDT 9:40 PM EDT
Astronomical Twilight 4:44 AM EDT 10:19 PM EDT
Moon 1:35 AM EDT (7/26) 3:23 PM EDT (7/26)
Length of Visible Light 15h 07m
Length of Day
14h 09m
Waning Crescent, 34% of the Moon is Illuminated
Jul 26
Waning Crescent
Jul 31
New
Aug 7
First Quarter
Aug 15
Full
Aug 23
Last Quarter

Hourly Weather History & Observations

Time (EDT) Temp. Dew Point Humidity Pressure Visibility Wind Dir Wind Speed Gust Speed Precip Events Conditions
12:15 AM 59.5 °F 54.3 °F 83% 30.32 in 10.0 mi Calm Calm - N/A   Clear
12:35 AM 58.6 °F 54.3 °F 86% 30.32 in 10.0 mi Calm Calm - N/A   Scattered Clouds
12:55 AM 58.3 °F 54.7 °F 88% 30.33 in 10.0 mi Calm Calm - N/A   Scattered Clouds
1:15 AM 56.8 °F 54.3 °F 91% 30.33 in 10.0 mi Calm Calm - N/A   Scattered Clouds
1:35 AM 59.0 °F 54.7 °F 86% 30.34 in 10.0 mi Calm Calm - N/A   Mostly Cloudy
1:55 AM 57.2 °F 54.5 °F 91% 30.33 in 10.0 mi Calm Calm - N/A   Mostly Cloudy
2:15 AM 58.5 °F 54.1 °F 86% 30.33 in 10.0 mi Calm Calm - N/A   Mostly Cloudy
2:35 AM 56.5 °F 54.5 °F 93% 30.33 in 10.0 mi Calm Calm - N/A   Mostly Cloudy
2:55 AM 56.7 °F 54.1 °F 91% 30.33 in 10.0 mi Calm Calm - N/A   Mostly Cloudy
3:15 AM 55.8 °F 54.1 °F 94% 30.33 in 10.0 mi Calm Calm - N/A   Overcast
3:35 AM 56.1 °F 54.3 °F 94% 30.33 in 10.0 mi Calm Calm - N/A   Mostly Cloudy
3:55 AM 56.1 °F 54.1 °F 93% 30.33 in 10.0 mi SSW 3.5 mph - N/A   Clear
4:15 AM 56.3 °F 53.8 °F 91% 30.33 in 10.0 mi Calm Calm - N/A   Scattered Clouds
4:35 AM 54.1 °F 53.6 °F 98% 30.33 in 10.0 mi Calm Calm - N/A   Overcast
4:55 AM 53.8 °F 53.2 °F 98% 30.33 in 10.0 mi Calm Calm - N/A   Overcast
5:15 AM 54.3 °F 53.6 °F 97% 30.33 in 10.0 mi Calm Calm - N/A   Mostly Cloudy
5:35 AM 55.4 °F 53.8 °F 94% 30.34 in 10.0 mi Calm Calm - N/A   Scattered Clouds
5:55 AM 55.0 °F 54.1 °F 97% 30.34 in 10.0 mi Calm Calm - N/A   Clear
6:15 AM 54.5 °F 54.0 °F 98% 30.35 in 7.0 mi Calm Calm - N/A   Clear
6:35 AM 55.8 °F 53.8 °F 93% 30.35 in 10.0 mi Calm Calm - N/A   Clear
6:55 AM 55.6 °F 54.0 °F 94% 30.36 in 10.0 mi Calm Calm - N/A   Clear
7:15 AM 54.0 °F 52.7 °F 95% 30.36 in 4.0 mi Calm Calm - N/A   Clear
7:35 AM 57.0 °F 54.7 °F 92% 30.37 in 10.0 mi Calm Calm - N/A   Clear
7:55 AM 57.0 °F 56.3 °F 97% 30.38 in 10.0 mi Calm Calm - N/A   Clear
8:15 AM 57.9 °F 56.1 °F 94% 30.38 in 10.0 mi Calm Calm - N/A   Clear
8:35 AM 60.3 °F 57.2 °F 90% 30.38 in 10.0 mi Calm Calm - N/A   Clear
8:55 AM 61.3 °F 57.9 °F 89% 30.40 in 10.0 mi Calm Calm - N/A   Clear
9:15 AM 63.5 °F 56.7 °F 78% 30.40 in 10.0 mi Calm Calm - N/A   Clear
9:35 AM 64.4 °F 60.1 °F 86% 30.40 in 10.0 mi Calm Calm - N/A   Clear
9:55 AM 65.7 °F 59.5 °F 81% 30.40 in 10.0 mi Calm Calm - N/A   Clear
10:15 AM 66.9 °F 57.6 °F 72% 30.40 in 10.0 mi ESE 3.5 mph - N/A   Clear
10:35 AM 67.8 °F 57.2 °F 69% 30.41 in 10.0 mi South 3.5 mph - N/A   Clear
10:55 AM 68.5 °F 57.4 °F 67% 30.41 in 10.0 mi ESE 3.5 mph - N/A   Clear
11:15 AM 68.9 °F 57.7 °F 68% 30.40 in 10.0 mi ESE 5.8 mph - N/A   Scattered Clouds
11:35 AM 70.0 °F 57.4 °F 64% 30.40 in 10.0 mi East 6.9 mph - N/A   Clear
11:55 AM 69.3 °F 58.5 °F 68% 30.41 in 10.0 mi Calm Calm - N/A   Mostly Cloudy
12:15 PM 70.3 °F 56.7 °F 62% 30.40 in 10.0 mi ESE 3.5 mph - N/A   Mostly Cloudy
12:35 PM 70.3 °F 56.7 °F 62% 30.40 in 10.0 mi Calm Calm - N/A   Overcast
12:55 PM 69.8 °F 55.2 °F 60% 30.40 in 10.0 mi East 4.6 mph - N/A   Mostly Cloudy
1:15 PM 68.9 °F 56.8 °F 65% 30.40 in 10.0 mi Calm Calm - N/A   Mostly Cloudy
1:35 PM 69.4 °F 57.7 °F 66% 30.40 in 10.0 mi ESE 4.6 mph - N/A   Overcast
1:55 PM 72.1 °F 59.4 °F 64% 30.39 in 10.0 mi ESE 8.1 mph - N/A   Overcast
2:15 PM 72.3 °F 58.3 °F 61% 30.39 in 10.0 mi ESE 5.8 mph - N/A   Mostly Cloudy
2:35 PM 70.0 °F 57.9 °F 65% 30.38 in 10.0 mi Calm Calm - N/A   Mostly Cloudy
2:55 PM 70.3 °F 57.2 °F 63% 30.38 in 10.0 mi Calm Calm - N/A   Mostly Cloudy
3:15 PM 72.3 °F 58.5 °F 62% 30.38 in 10.0 mi Calm Calm - N/A   Scattered Clouds
3:35 PM 72.3 °F 56.1 °F 57% 30.38 in 10.0 mi SSW 5.8 mph - N/A   Scattered Clouds
3:55 PM 71.2 °F 58.1 °F 63% 30.38 in 10.0 mi SE 5.8 mph - N/A   Mostly Cloudy
4:15 PM 72.9 °F 59.2 °F 62% 30.38 in 10.0 mi ESE 4.6 mph - N/A   Mostly Cloudy
4:35 PM 70.7 °F 58.6 °F 66% 30.37 in 10.0 mi ESE 4.6 mph - N/A   Overcast
4:55 PM 71.8 °F 57.9 °F 62% 30.37 in 10.0 mi SE 4.6 mph - N/A   Overcast
5:15 PM 72.5 °F 58.3 °F 61% 30.37 in 10.0 mi SSE 3.5 mph - N/A   Overcast
5:35 PM 70.0 °F 56.7 °F 63% 30.36 in 10.0 mi Calm Calm - N/A   Overcast
5:55 PM 69.8 °F 56.7 °F 63% 30.36 in 10.0 mi Calm Calm - N/A   Overcast
6:15 PM 68.9 °F 57.2 °F 66% 30.36 in 10.0 mi Calm Calm - N/A   Mostly Cloudy
6:35 PM 68.9 °F 57.4 °F 67% 30.36 in 10.0 mi Calm Calm - N/A   Overcast
6:55 PM 69.8 °F 57.4 °F 65% 30.36 in 10.0 mi Calm Calm - N/A   Mostly Cloudy
7:15 PM 68.5 °F 57.2 °F 67% 30.36 in 10.0 mi Calm Calm - N/A   Scattered Clouds
7:35 PM 68.0 °F 57.9 °F 70% 30.37 in 10.0 mi Calm Calm - N/A   Clear
7:55 PM 68.2 °F 55.9 °F 65% 30.37 in 10.0 mi Calm Calm - N/A   Scattered Clouds
8:15 PM 68.2 °F 54.9 °F 62% 30.37 in 10.0 mi Calm Calm - N/A   Mostly Cloudy
8:35 PM 67.1 °F 56.1 °F 68% 30.37 in 10.0 mi Calm Calm - N/A   Scattered Clouds
8:55 PM 67.1 °F 55.9 °F 67% 30.37 in 10.0 mi Calm Calm - N/A   Clear
9:15 PM 66.4 °F 55.8 °F 69% 30.38 in 10.0 mi Calm Calm - N/A   Clear
9:35 PM 66.2 °F 56.8 °F 72% 30.38 in 10.0 mi Calm Calm - N/A   Clear
9:55 PM 64.9 °F 58.6 °F 80% 30.39 in 10.0 mi Calm Calm - N/A   Clear
10:15 PM 64.6 °F 57.6 °F 78% 30.40 in 10.0 mi Calm Calm - N/A   Clear
10:35 PM 65.7 °F 56.7 °F 73% 30.40 in 10.0 mi Calm Calm - N/A   Clear
10:55 PM 64.6 °F 56.8 °F 76% 30.40 in 10.0 mi Calm Calm - N/A   Clear
11:15 PM 61.2 °F 57.2 °F 87% 30.40 in 10.0 mi Calm Calm - N/A   Clear
11:35 PM 61.3 °F 57.2 °F 86% 30.40 in 10.0 mi Calm Calm - N/A   Clear
11:55 PM 61.2 °F 56.5 °F 85% 30.40 in 10.0 mi Calm Calm - N/A   Clear